Terug naar catalogus

ARIANE 2 DEB

ActiefGTO
NORAD 28566·DEBRIS·🇫🇷 France

Gelanceerd Jan 27, 1989 vanaf Guiana Space Centre

Loading…

TLE

VerouderdSource: Space-Track

Epoch: Sep 13, 2026, 19:58 UTC

1 28566U 89006AH  26256.83259035 -.00001181  00000-0 -20153-1 0  9991
2 28566   6.5986 148.1261 7109964 310.9764   6.5977  2.29444182  4220

Volg ARIANE 2 DEB in realtime met AllMySat

Download on the App Store